Norwood, MA

7:03 AM EDT on March 28, 2017 (GMT -0400)
Norwood Memorial

Weather History for KOWD - October, 2012

Change the Weather History Date:

Friday, October 5, 2012

  Actual Average Record
Temperature  
Mean Temperature 66 °F -  
Max Temperature 79 °F 64 °F 88 °F (2007)
Min Temperature 55 °F 39 °F 30 °F (1996)
Cooling Degree Days 2    
Growing Degree Days 16 (Base 50)    
Moisture  
Dew Point 57 °F    
Average Humidity 80    
Maximum Humidity 97    
Minimum Humidity 43    
Precipitation  
Precipitation 0.01 in - - ()
Sea Level Pressure  
Sea Level Pressure 29.98 in    
Wind  
Wind Speed 2 mph (WNW)    
Max Wind Speed 9 mph    
Max Gust Speed -    
Visibility 5 miles    
Events Fog    
Averages and records for this station are not official NWS values.
T = Trace of Precipitation, MM = Missing Value Source: NWS Daily Summary

Daily Weather History Graph

Daily Weather History Graph

Search for Another Location

Airport or City:

Trip Planner

Search our weather history database for the weather conditions in past years. The results will help you decide how hot, cold, wet, or windy it might be!

Date:

Astronomy

Oct. 05, 2012 Rise Set
Actual Time 6:46 AM EDT 6:18 PM EDT
Civil Twilight 6:18 AM EDT 6:46 PM EDT
Nautical Twilight 5:46 AM EDT 7:18 PM EDT
Astronomical Twilight 5:13 AM EDT 7:51 PM EDT
Moon 9:34 PM EDT (10/5) 11:56 AM EDT (10/5)
Length of Visible Light 12h 27m
Length of Day
11h 32m
Waning Gibbous, 74% of the Moon is Illuminated
Oct 5
Waning Gibbous
Oct 8
Last Quarter
Oct 15
New
Oct 21
First Quarter
Oct 29
Full

Hourly Weather History & Observations

Time (EDT) Temp. Dew Point Humidity Pressure Visibility Wind Dir Wind Speed Gust Speed Precip Events Conditions
12:53 AM 62.1 °F 60.1 °F 93% 30.03 in 0.5 mi Calm Calm - N/A Fog Fog
1:53 AM 61.0 °F 60.1 °F 97% 30.02 in 0.5 mi Calm Calm - N/A Fog Fog
2:53 AM 61.0 °F 60.1 °F 97% 30.00 in 0.5 mi Calm Calm - N/A Fog Fog
3:53 AM 61.0 °F 60.1 °F 97% 30.00 in 0.5 mi WNW 4.6 mph - 0.01 in Fog Fog
4:53 AM 61.0 °F 59.0 °F 93% 30.00 in 0.2 mi Calm Calm - N/A Fog Fog
5:53 AM 60.1 °F 59.0 °F 96% 30.01 in 0.2 mi Calm Calm - N/A Fog Fog
6:25 AM 59.0 °F 57.2 °F 94% 30.01 in 1.0 mi West 3.5 mph - N/A   Overcast
6:34 AM 59.0 °F 57.2 °F 94% 30.01 in 0.8 mi Calm Calm - N/A   Overcast
6:53 AM 59.0 °F 57.0 °F 93% 30.02 in 0.2 mi Calm Calm - N/A Fog Fog
7:53 AM 59.0 °F 57.9 °F 96% 30.02 in 0.2 mi Calm Calm - N/A Fog Fog
8:33 AM 60.8 °F 59.0 °F 94% 30.02 in 1.5 mi Calm Calm - N/A   Partly Cloudy
8:36 AM 60.8 °F 59.0 °F 94% 30.02 in 4.0 mi Calm Calm - N/A   Clear
8:53 AM 62.1 °F 59.0 °F 90% 30.02 in 10.0 mi Calm Calm - N/A   Clear
9:53 AM 68.0 °F 59.0 °F 73% 30.01 in 10.0 mi West 4.6 mph - N/A   Clear
10:53 AM 72.0 °F 60.1 °F 66% 30.00 in 10.0 mi West 6.9 mph - N/A   Clear
11:53 AM 75.0 °F 57.0 °F 53% 29.99 in 10.0 mi WNW 8.1 mph - N/A   Clear
12:53 PM 75.9 °F 55.0 °F 48% 29.98 in 10.0 mi NW 9.2 mph - N/A   Clear
1:53 PM 78.1 °F 54.0 °F 43% 29.95 in 10.0 mi Variable 4.6 mph - N/A   Clear
2:53 PM 78.1 °F 55.0 °F 45% 29.94 in 10.0 mi NW 9.2 mph - N/A   Clear
3:53 PM 78.1 °F 55.0 °F 45% 29.93 in 10.0 mi Variable 3.5 mph - N/A   Clear
4:53 PM 77.0 °F 55.0 °F 47% 29.92 in 10.0 mi WNW 3.5 mph - N/A   Clear
5:53 PM 75.0 °F 55.0 °F 50% 29.93 in 10.0 mi West 3.5 mph - N/A   Clear
6:53 PM 63.0 °F 57.0 °F 81% 29.94 in 10.0 mi Calm Calm - N/A   Clear
7:53 PM 62.1 °F 57.9 °F 86% 29.94 in 10.0 mi Calm Calm - N/A   Clear
8:53 PM 59.0 °F 55.9 °F 90% 29.94 in 7.0 mi Calm Calm - N/A   Clear
9:53 PM 59.0 °F 55.0 °F 87% 29.93 in 8.0 mi Calm Calm - N/A   Clear
10:53 PM 57.9 °F 55.0 °F 90% 29.93 in 8.0 mi Calm Calm - N/A   Clear
11:01 PM 55.4 °F 51.8 °F 88% 29.93 in 1.5 mi Calm Calm - N/A   Clear
11:11 PM 55.4 °F 53.6 °F 94% 29.93 in 0.5 mi Calm Calm - N/A Fog Fog
11:53 PM 55.0 °F 53.1 °F 93% 29.92 in 0.2 mi Calm Calm - N/A Fog Fog